Theta_e
340 348 355 359 365 369 369 364 359 360 356 351 349 354 357 357 360 369 351 352 354 351 355 355 352 351 349 348 347 347 345 353 352 353 353 354 352 353 350 350 355 355 352 352 351 352 351 350 352
350 357 359 360 373 372 372 358 358 357 356 353 353 355 354 358 355 354 353 351 351 351 349 353 349 350 347 348 347 349 353 353 351 351 351 351 352 352 352 352 353 353 354 355 354 353 351 350 351
344 355 366 356 369 372 365 357 357 354 351 353 351 354 354 356 355 354 351 350 349 349 349 350 352 345 345 348 345 348 352 351 352 343 344 344 344 348 350 349 350 352 352 353 354 355 353 354 351
350 360 358 366 363 358 357 354 355 355 351 353 355 356 352 350 352 353 351 351 349 349 351 349 351 350 348 349 346 347 346 345 349 337 332 337 335 339 344 346 347 349 351 352 352 351 351 353 354
350 360 366 372 357 354 350 353 354 353 352 355 354 356 355 351 351 353 351 351 352 355 352 351 351 347 350 345 347 341 352 351 351 338 332 331 331 330 339 342 347 346 347 348 351 352 350 349 349
352 354 359 366 361 357 351 352 353 356 356 354 355 355 355 351 352 353 352 351 353 355 351 350 351 350 346 351 353 349 352 352 347 339 332 329 329 330 331 340 343 346 349 350 350 351 350 349 345
352 357 359 357 356 354 348 347 349 352 355 352 354 359 354 351 350 353 351 352 353 353 354 354 352 354 354 350 354 353 351 351 346 342 332 330 332 331 331 339 342 346 347 349 350 351 350 346 343
348 349 351 348 354 347 344 347 346 348 350 349 354 361 358 351 349 352 352 353 354 351 352 352 354 354 354 353 353 353 350 350 343 342 333 332 332 335 331 334 342 345 348 349 351 351 349 346 345
343 348 349 349 349 349 345 346 352 352 353 350 355 355 351 350 350 350 352 353 352 353 351 352 352 353 353 352 352 352 347 351 348 345 344 336 335 336 332 334 341 347 347 349 351 351 351 350 347
341 342 345 346 345 345 344 351 348 354 356 354 355 352 350 349 349 349 350 352 351 351 351 350 350 350 349 351 351 351 350 342 348 344 346 342 338 335 333 338 339 341 346 348 349 346 345 347 349
339 342 340 340 341 344 349 349 346 349 350 354 355 354 351 350 349 349 350 350 351 350 350 349 350 349 348 347 349 351 350 343 346 345 346 344 343 339 334 338 340 342 343 340 344 343 345 345 338
339 337 340 339 340 342 343 345 344 346 350 350 353 352 350 351 350 348 349 348 349 349 349 350 349 349 348 350 349 351 348 346 345 347 345 345 344 343 340 340 341 339 340 342 343 346 344 346 348
338 336 337 337 338 341 341 344 346 349 348 350 352 351 351 350 349 348 347 347 348 349 349 348 351 351 350 350 349 353 349 347 347 345 347 348 344 346 344 343 343 340 340 341 346 346 345 348 347
336 335 336 337 337 338 339 341 346 343 347 351 353 352 351 350 348 347 347 347 348 349 349 349 350 352 351 352 351 352 349 340 347 344 346 347 347 347 344 344 345 344 345 347 347 346 344 347 346
336 337 338 337 337 339 339 342 344 342 346 351 354 353 352 350 348 348 347 348 348 349 350 352 352 351 351 353 353 350 350 349 347 344 343 348 348 347 347 346 345 347 348 344 343 347 346 345 347
337 339 344 338 335 338 334 344 343 343 345 350 352 352 353 352 349 348 347 348 349 350 350 351 351 353 354 354 352 351 352 351 349 347 343 343 347 348 348 347 347 347 348 349 347 348 345 347 342
337 341 336 336 335 334 336 337 341 338 342 347 349 352 353 353 351 350 349 349 350 350 351 351 352 352 353 355 353 352 353 350 349 347 345 347 345 347 348 348 348 346 348 348 348 346 347 346 343
340 336 335 333 334 332 332 333 334 335 339 341 348 352 352 353 353 352 351 350 351 351 352 353 354 355 356 357 355 355 353 348 340 348 344 343 348 348 347 346 349 349 346 350 349 348 350 350 350
333 333 333 333 333 332 331 333 333 333 335 339 340 348 352 352 351 353 352 352 352 352 355 354 355 358 355 354 356 356 353 352 352 349 344 342 343 347 345 347 348 347 349 347 349 346 347 346 347
332 333 333 333 332 331 332 333 334 334 335 335 338 344 349 351 352 355 353 352 352 354 356 359 361 358 353 346 350 358 354 352 353 352 350 346 344 350 346 344 343 347 349 349 347 347 348 348 347
333 334 333 331 331 332 334 338 338 337 337 338 337 341 345 349 352 353 355 353 351 355 358 361 362 360 354 344 347 357 355 353 352 353 354 349 350 349 344 344 343 343 346 347 347 345 348 347 346
333 333 333 331 332 335 336 344 343 345 343 340 341 342 344 347 347 353 354 353 349 354 356 361 364 363 361 356 357 358 356 354 352 353 355 354 352 352 346 345 345 344 344 345 342 346 348 345 348
333 332 332 332 333 334 336 345 352 347 348 347 343 342 344 344 345 346 352 354 352 353 354 357 363 366 365 363 359 359 356 355 355 352 354 353 353 351 350 348 346 346 346 347 347 345 350 352 347
332 331 332 334 335 336 339 344 353 352 349 347 344 344 345 344 345 343 343 354 354 353 352 355 362 365 365 365 363 359 358 356 357 356 354 355 352 349 353 351 351 350 349 351 347 343 344 349 350
331 332 335 339 341 342 339 341 348 345 341 345 344 348 347 346 344 345 351 351 356 353 352 356 360 363 364 365 365 363 364 358 355 354 355 355 356 354 355 353 354 352 351 348 350 350 349 348 350
333 333 336 347 348 346 340 343 347 345 341 343 348 349 350 350 352 353 352 352 354 355 353 354 363 365 365 364 363 365 364 362 360 358 358 355 354 354 355 354 351 355 353 352 353 353 350 350 350
332 335 334 337 341 342 344 347 339 339 342 342 352 352 353 358 359 358 357 355 355 355 357 359 363 363 363 363 363 363 363 363 362 359 360 356 357 357 352 353 351 353 353 353 353 354 352 350 351
333 335 338 338 345 348 350 355 352 344 341 342 344 351 358 359 356 357 357 357 357 357 357 360 360 363 363 363 363 363 363 363 362 362 357 357 359 357 354 358 356 354 354 353 353 352 353 350 345
333 333 334 336 338 345 347 355 344 343 342 342 348 351 356 358 355 352 351 353 353 353 353 354 355 357 361 359 359 360 359 359 361 364 362 359 357 356 358 357 354 354 355 355 352 352 351 352 350
337 338 337 340 343 339 342 345 342 340 339 341 340 347 353 351 352 350 351 351 350 351 353 353 354 353 354 354 358 359 356 353 356 358 359 359 359 354 350 356 354 354 355 353 351 351 353 351 349
Wind_Speed
8 6 9 1 5 3 8 14 16 6 7 14 12 13 16 3 8 12 25 27 26 25 22 21 23 22 25 25 25 23 23 20 21 21 21 19 18 17 17 16 16 15 16 16 15 14 14 14 14
7 11 4 5 3 3 5 12 13 12 12 5 20 11 18 20 22 20 21 26 25 24 23 21 22 23 25 26 26 23 20 19 21 21 20 19 18 16 15 14 13 12 12 12 13 12 12 12 11
8 9 3 3 4 6 5 14 9 18 8 13 15 15 10 18 26 19 32 29 27 24 23 22 22 22 25 25 27 25 22 21 19 20 17 16 18 16 13 11 11 11 10 10 9 11 10 9 9
6 3 5 1 8 13 12 7 16 9 17 18 17 13 20 18 23 34 30 28 25 24 23 24 22 22 25 24 26 25 24 20 19 19 17 13 15 13 11 10 7 7 8 8 7 6 8 7 6
17 5 3 6 9 12 9 12 15 5 15 14 21 20 14 20 23 34 28 25 26 24 21 22 21 20 22 23 22 23 20 19 18 17 17 14 11 12 4 6 5 3 4 4 5 4 4 4 5
8 2 1 10 19 10 9 10 11 18 16 10 20 16 13 24 25 32 26 26 20 20 22 21 20 21 21 20 19 21 20 18 17 16 16 11 13 11 14 2 2 2 1 1 1 2 2 3 4
8 5 14 16 6 6 9 13 7 13 15 8 20 15 12 17 19 37 26 27 24 24 23 20 19 18 19 20 19 20 20 17 16 14 15 15 14 20 21 5 2 4 4 4 3 3 4 5 5
8 2 11 7 9 8 11 4 10 15 6 9 18 7 16 20 23 38 29 24 21 26 23 21 19 17 17 18 19 19 19 16 15 15 14 16 16 14 25 15 1 5 6 6 5 6 6 6 6
6 4 8 13 9 5 7 11 19 27 12 8 15 15 22 26 24 27 32 29 30 25 23 23 20 18 18 18 17 18 17 16 15 14 14 14 14 17 25 22 11 6 8 9 8 8 8 8 9
4 6 10 14 8 7 4 22 23 12 19 16 16 19 26 25 22 25 22 25 27 21 24 26 23 23 21 20 20 19 16 15 17 15 15 14 14 17 23 19 16 12 12 12 12 10 10 9 13
12 4 9 10 10 5 14 9 14 6 12 16 13 15 19 20 18 19 21 23 29 25 24 23 25 25 23 22 17 16 19 15 18 17 18 15 15 16 22 23 21 19 16 15 14 14 11 4 15
7 5 11 6 2 1 9 9 3 14 7 15 15 16 18 18 16 18 21 18 18 16 19 23 25 22 22 20 19 16 16 17 17 16 17 16 17 16 16 18 20 24 19 21 13 14 13 9 11
11 3 12 9 7 4 1 3 12 14 9 15 17 16 17 16 16 20 19 20 17 16 15 21 23 19 16 17 18 15 17 16 22 18 19 16 18 18 17 19 19 21 22 19 17 16 11 4 12
5 5 1 10 7 5 4 3 17 6 14 16 13 15 16 15 16 18 19 23 21 20 18 24 21 20 18 14 16 13 13 21 25 21 17 18 18 19 17 20 19 20 18 18 15 15 11 10 14
7 11 10 7 7 3 6 4 8 10 12 15 16 15 14 14 18 17 17 20 21 22 23 24 23 22 19 16 13 11 16 16 22 18 14 15 17 17 18 17 20 20 17 16 19 10 12 11 15
14 6 8 5 3 7 9 2 9 11 8 15 16 14 15 14 16 17 17 16 21 21 25 24 22 25 21 19 15 13 5 12 19 17 13 12 11 14 17 15 14 13 17 17 16 14 12 13 13
8 2 8 7 8 4 5 2 10 9 12 11 13 16 13 14 15 18 19 18 21 19 24 21 18 25 22 19 18 14 11 12 11 15 14 14 12 11 13 12 10 10 11 13 19 16 18 13 17
8 3 7 2 8 2 8 11 8 10 14 9 12 17 14 15 16 22 21 20 21 19 22 20 21 24 24 19 13 13 13 13 16 18 17 17 14 10 8 12 8 9 11 10 14 12 10 10 9
6 7 9 3 3 3 5 10 10 7 7 13 9 16 17 16 16 24 21 22 21 22 23 22 21 18 19 18 15 13 15 16 17 20 18 16 13 11 13 13 11 11 12 14 10 13 14 16 15
7 9 4 4 2 7 10 11 5 3 2 2 6 12 16 17 18 17 22 22 19 20 23 23 20 20 19 15 14 11 12 15 13 13 16 15 15 15 13 12 12 11 11 11 11 12 14 15 14
14 8 10 6 11 14 11 7 7 5 6 4 6 8 13 15 19 18 18 21 19 20 21 22 20 20 21 18 11 12 10 13 14 16 13 17 15 17 14 13 11 14 15 10 10 15 15 14 13
10 8 10 9 13 12 13 2 2 19 12 7 5 9 13 15 13 19 20 21 20 20 19 20 22 21 18 16 15 14 14 13 19 18 16 18 20 22 19 17 18 20 18 18 17 18 17 14 17
11 11 7 11 10 15 12 10 9 18 21 19 5 5 14 13 15 25 10 26 26 25 19 17 18 20 18 19 19 17 16 16 16 16 12 16 20 23 22 21 22 23 23 26 24 22 19 18 19
7 11 14 15 12 11 4 9 5 5 22 22 4 6 4 10 11 25 51 26 22 26 23 19 18 16 17 20 19 17 17 16 11 15 15 14 19 22 24 24 25 25 26 24 28 27 25 21 20
12 15 10 6 10 4 11 2 12 21 33 26 1 9 6 6 3 4 13 14 19 28 23 22 22 19 17 16 17 19 18 15 14 11 15 17 19 21 27 29 29 29 30 27 26 24 25 24 22
15 16 9 4 7 3 12 9 13 23 27 6 12 9 7 8 11 14 10 8 15 20 25 25 28 23 21 18 17 17 17 16 17 17 21 26 22 29 29 29 24 25 25 25 24 27 22 21 23
16 15 7 11 22 7 7 9 11 10 13 9 14 11 11 19 17 16 12 11 9 8 5 13 30 24 19 18 18 18 19 20 18 20 26 22 12 11 11 21 21 22 26 25 25 24 25 26 23
16 12 10 7 3 6 5 7 13 9 7 9 5 11 19 23 20 8 7 12 8 3 5 7 5 11 7 11 15 14 16 20 20 18 19 13 11 8 13 12 15 18 22 22 22 25 24 27 30
8 11 11 9 6 3 5 6 18 6 3 5 10 7 17 19 16 6 4 5 9 9 10 5 8 10 16 15 17 16 15 15 19 18 17 18 15 15 15 17 20 19 19 21 23 26 27 26 27
8 7 6 2 9 3 9 5 12 8 6 6 4 10 12 6 9 8 10 12 10 9 8 9 8 7 9 12 5 17 21 21 18 17 16 14 18 14 12 18 21 20 19 19 21 23 26 28 29
Wind_Direction
266 212 237 6 52 294 118 68 83 59 34 52 59 93 102 52 107 116 137 124 131 134 137 131 134 134 133 130 131 125 125 115 109 104 101 99 96 94 95 94 94 98 97 99 102 107 109 111 117
253 235 306 37 9 11 7 115 82 59 86 22 87 65 70 88 96 121 129 135 134 139 140 139 137 139 139 136 140 133 123 118 114 110 107 102 88 82 85 91 93 91 92 100 105 106 109 118 124
249 247 76 167 259 82 82 71 73 30 38 138 79 51 76 105 124 130 132 136 137 142 142 147 143 146 144 145 150 142 135 130 123 117 112 111 103 89 75 78 89 91 92 93 96 109 113 119 127
237 171 42 323 42 95 47 48 99 133 77 83 110 76 95 120 114 128 131 138 138 143 139 148 148 149 150 151 157 150 151 143 137 134 133 123 122 109 78 74 73 86 96 101 99 104 124 132 140
226 108 219 231 72 30 59 36 73 65 55 81 96 107 91 96 121 123 134 132 135 130 141 148 151 152 152 158 159 163 156 152 150 147 139 139 135 149 98 81 46 78 93 108 109 116 122 138 171
269 123 276 59 56 321 17 31 93 91 81 124 115 119 104 115 137 135 142 142 142 137 144 149 155 155 160 161 162 166 164 160 161 154 160 181 179 196 208 128 79 358 304 123 140 165 179 201 216
227 224 91 91 97 275 28 29 16 78 162 96 97 110 131 139 147 139 142 146 153 149 141 149 157 160 164 168 167 164 164 167 173 173 189 195 205 223 209 214 195 295 283 260 238 219 233 245 251
293 3 92 90 130 57 82 74 34 63 64 93 130 147 153 153 155 143 148 148 148 150 147 152 157 164 168 173 174 173 173 180 188 186 204 198 196 241 216 217 329 274 261 256 252 247 253 265 268
261 10 128 75 65 111 118 93 30 354 353 94 105 146 153 153 159 141 153 151 149 157 159 161 163 170 176 177 182 183 189 188 190 192 204 211 212 212 207 215 235 251 262 261 254 253 267 283 282
41 42 38 117 189 100 104 101 108 172 258 100 87 115 138 157 165 154 141 156 156 160 167 170 170 175 183 188 191 186 184 204 197 203 208 206 225 215 213 224 234 261 260 261 251 256 265 280 278
68 55 121 51 27 67 111 174 174 171 59 96 123 137 149 163 176 164 154 161 156 167 168 172 171 174 184 187 186 183 190 207 211 213 210 206 224 225 217 227 232 243 253 254 254 256 258 317 260
112 83 80 89 317 208 50 68 46 81 50 94 129 145 156 166 177 167 165 167 163 177 176 169 161 173 175 176 185 191 189 193 208 213 220 213 223 223 219 227 232 228 245 252 259 240 249 242 251
73 357 141 147 228 103 159 99 17 118 123 104 126 152 158 178 181 170 180 163 174 184 193 161 157 161 179 186 191 191 171 201 208 203 214 214 219 224 223 224 227 224 236 246 256 259 225 258 270
105 213 210 147 134 168 235 121 117 257 120 115 138 157 166 180 181 174 188 167 177 181 189 166 177 181 182 189 198 203 210 212 208 204 208 209 219 226 228 229 229 234 223 231 237 258 250 255 263
244 233 206 94 81 336 44 292 129 111 142 143 156 170 169 181 178 182 198 176 176 177 187 169 183 186 184 207 212 215 208 194 198 191 196 210 217 221 224 229 230 236 239 241 241 258 239 264 272
223 268 124 190 208 145 241 317 136 153 173 159 164 170 166 183 177 185 191 186 173 182 177 181 192 179 188 197 203 213 224 182 193 199 213 214 201 220 216 220 216 231 222 235 239 245 253 230 254
226 186 108 142 144 274 211 324 185 171 157 177 174 161 171 178 183 180 184 189 182 190 176 192 186 189 196 197 191 192 184 171 214 209 206 206 216 212 209 214 218 220 241 232 239 249 233 244 247
229 169 113 183 155 73 301 279 230 215 174 177 182 156 168 175 192 175 186 198 179 181 180 183 180 175 188 192 188 197 182 206 223 220 211 216 216 206 214 229 218 231 242 252 253 253 265 267 281
338 299 327 290 358 274 261 291 278 225 226 173 181 169 172 181 180 174 194 185 187 175 172 182 183 175 178 189 181 203 192 200 212 226 233 215 206 200 202 219 219 230 234 244 258 270 267 273 265
297 273 279 26 354 246 239 239 280 321 245 231 203 174 177 178 169 174 179 183 194 174 173 178 178 192 200 202 205 211 210 221 215 220 229 221 203 218 215 223 234 223 244 252 251 265 252 261 252
258 308 44 320 291 258 252 227 150 112 210 207 242 191 184 179 176 176 175 186 186 177 173 179 181 201 214 217 218 221 222 228 216 214 221 221 211 219 219 225 237 239 234 246 238 249 234 239 257
298 37 329 308 300 303 198 143 315 15 351 153 165 191 178 186 197 171 174 180 185 176 184 184 183 190 209 217 210 212 212 184 211 211 218 213 212 220 224 230 221 233 235 231 232 233 228 237 246
311 339 309 284 273 277 232 137 8 43 339 300 119 31 188 190 199 20 226 176 185 163 178 190 184 187 197 203 207 221 224 225 212 210 223 208 215 224 229 227 227 229 227 225 228 231 228 229 235
290 281 272 258 245 262 304 133 13 88 244 272 146 202 36 333 110 143 232 167 174 162 156 173 180 197 203 200 211 218 225 236 211 196 207 218 223 222 225 221 224 229 230 224 232 230 234 229 233
251 256 263 261 256 8 284 65 171 196 221 245 73 60 42 310 26 84 139 154 154 143 157 160 173 183 203 216 215 215 224 230 234 222 203 216 220 218 216 213 212 218 224 230 233 230 229 229 225
270 274 292 12 312 208 290 136 168 200 208 98 107 83 72 52 42 30 47 115 145 155 170 172 168 177 184 195 219 223 222 225 226 226 229 215 221 234 220 217 209 221 225 225 225 231 226 222 223
246 250 270 238 221 195 16 1 115 124 110 115 97 89 71 64 47 20 10 24 68 152 156 144 169 177 187 201 209 224 229 228 231 235 238 238 231 267 207 207 214 221 220 224 227 226 226 217 214
269 313 295 308 16 356 72 41 248 45 49 74 65 97 81 74 3 354 5 15 38 104 153 129 173 173 188 229 217 221 236 242 239 249 258 259 260 249 245 231 231 221 230 232 230 229 221 222 222
198 241 244 307 295 148 226 218 260 152 68 30 92 88 123 140 164 125 103 58 25 48 45 71 170 198 198 207 225 216 221 241 248 240 249 247 249 251 253 257 258 256 243 241 238 236 231 225 224
221 281 259 280 295 320 323 83 44 27 96 96 348 66 62 36 116 165 158 153 120 102 46 45 14 357 331 315 274 212 233 230 239 243 247 248 244 241 250 257 258 253 256 254 251 240 234 225 225